Voltar ao catálogo

COSMOS 1375 DEB

AtivoLEO
NORAD 16206·DEBRIS·🇷🇺 Russia

Lançado Jun 6, 1982 de Plesetsk Cosmodrome

Loading…

Próximas Passagens (próximas 24 horas)

TLE

AtualizadoSource: Space-Track

Época: Sep 14, 2026, 06:35 UTC

1 16206U 82055H   26257.27438475  .00000035  00000-0  12265-3 0  9994
2 16206  65.8371 342.9783 0021789 328.4050  64.7696 13.74013969218611

Acompanhe COSMOS 1375 DEB em tempo real com AllMySat

Download on the App Store